[[{"header":{"parameterUnit":"m.s-1","parameterCategory":1,"la1":30.2991,"la2":30.254,"lo1":-89.0895,"lo2":-89.0444,"dy":0.0017,"dx":0.0017,"nx":28,"ny":28,"refTime":"2025-11-05T03:00:00:Z","depth":0,"parameterNumber":2,"parameterNumberName":"U-component_of_WINDS"},"data":[0,0,0,0,0,0,0,0,0,0,0,0,0,0,0,0,0,0,0,0,0,0,0,0,0,0,0,0,0,0,0,0,0,0,0,0,0,0,0,0,0,0,0,0,0,0,0,0,0,0,0,0,0,0,0,0,0,0,-1.4466,-1.4467,0,-1.4503,-1.4504,-1.4504,-1.4435,-1.4433,-1.4431,-1.4428,-1.4468,-1.4471,-1.4474,0,0,0,0,0,0,0,0,0,0,0,0,0,-1.4337,-1.434,-1.4466,-1.4467,-1.4467,-1.4503,-1.4504,-1.4504,-1.4436,-1.4433,-1.443,-1.4427,-1.4467,-1.4471,-1.4474,0,0,0,0,0,0,0,0,0,0,0,0,0,-1.4386,-1.4341,-1.4466,-1.4437,-1.4435,-1.4503,-1.4504,-1.4504,-1.4436,-1.4433,-1.4429,-1.4426,-1.4466,-1.447,-1.4475,-1.4574,0,0,-1.449,-1.4492,0,0,0,0,0,0,0,0,-1.4383,-1.4391,-1.4441,-1.4439,-1.4437,-1.4461,-1.4473,-1.4528,-1.4437,-1.4436,-1.4428,-1.4424,-1.4469,-1.4473,-1.4487,-1.4575,-1.4577,-1.449,-1.4493,-1.4495,-1.4496,0,0,0,0,0,0,0,-1.438,-1.4389,-1.4481,-1.4442,-1.4439,-1.4423,-1.4426,-1.4483,-1.4471,-1.4436,-1.4431,-1.4436,-1.4467,-1.4483,-1.4488,-1.4578,-1.449,-1.4494,-1.4497,-1.4499,-1.4749,-1.4752,0,0,0,0,0,0,-1.438,-1.4386,-1.448,-1.4482,-1.4401,-1.4428,-1.4431,-1.4457,-1.447,-1.4469,-1.4439,-1.4433,-1.4476,-1.4482,-1.4489,-1.4606,-1.4495,-1.45,-1.4502,-1.4745,-1.475,-1.4754,0,0,0,0,0,0,-1.4378,-1.4389,-1.4478,-1.4433,-1.4443,-1.4434,-1.4463,-1.4459,-1.4476,-1.4473,-1.447,-1.4458,-1.4474,-1.4482,-1.4553,-1.4606,-1.4502,-1.4506,-1.4741,-1.4747,-1.4752,-1.4841,0,0,0,0,0,0,-1.4374,-1.4389,-1.4426,-1.4434,-1.4446,-1.4542,-1.4466,-1.4463,-1.4484,-1.4476,-1.449,-1.4489,-1.4472,-1.4546,-1.4558,-1.4611,-1.451,-1.4736,-1.4743,-1.475,-1.4833,-1.4849,-1.4862,0,0,0,0,0,-1.437,-1.445,-1.4428,-1.444,-1.4492,-1.4545,-1.4552,-1.453,-1.4488,-1.4526,-1.4524,-1.4488,-1.4598,-1.4554,-1.4567,-1.4622,-1.4732,-1.4741,-1.4749,-1.4826,-1.4846,-1.4862,0,0,0,0,0,0,-1.4448,-1.445,-1.4426,-1.4511,-1.4528,-1.4533,-1.458,-1.4551,-1.4581,-1.4573,-1.4545,-1.4549,-1.4626,-1.463,-1.4581,-1.4718,-1.4658,-1.467,-1.4713,-1.4731,-1.4745,-1.4743,-1.4514,0,0,0,0,0,-1.4475,-1.4518,-1.4517,-1.4592,-1.4602,-1.459,-1.4612,-1.4594,-1.4611,-1.4618,-1.4621,-1.464,-1.4678,-1.4704,-1.474,-1.4833,-1.4835,-1.4877,-1.4891,-1.4903,-1.4914,-1.4964,-1.4983,-1.4782,-1.4781,-1.4781,0,0,-1.4532,-1.4538,-1.4567,-1.4608,-1.4619,-1.4665,-1.4596,-1.4647,-1.468,-1.4626,-1.4693,-1.4696,-1.4715,-1.4797,-1.4834,-1.4804,-1.497,-1.4914,-1.4924,-1.4928,-1.4975,-1.4994,-1.5011,-1.4787,-1.4786,-1.4785,0,0,-1.4658,-1.4667,-1.4731,-1.4743,-1.4761,-1.4752,-1.4767,-1.4777,-1.4776,-1.4843,-1.4803,-1.4843,-1.491,-1.4925,-1.4941,-1.5073,-1.5041,-1.5085,-1.5162,-1.5211,-1.5227,-1.5241,-1.5289,-1.5306,-1.5095,-1.5096,-1.5096,0,-1.4727,-1.4793,-1.4767,-1.4821,-1.484,-1.4792,-1.4857,-1.487,-1.4899,-1.4914,-1.4879,-1.4963,-1.4972,-1.5057,-1.5089,-1.5104,-1.5121,-1.5084,-1.5226,-1.524,-1.5253,-1.5299,-1.5317,-1.5101,-1.51,-1.51,-1.5099,0,-1.4877,-1.4923,-1.4972,-1.5001,-1.5026,-1.5085,-1.5069,-1.5097,-1.5076,-1.5071,-1.514,-1.5149,-1.5186,-1.5204,-1.5185,-1.5288,-1.5268,-1.5231,-1.517,-1.5278,-1.532,-1.5338,-1.5108,-1.5106,-1.5105,-1.5104,0,0,-1.5055,-1.5068,-1.5087,-1.5099,-1.5115,-1.5151,-1.5207,-1.5243,-1.5268,-1.5289,-1.5337,-1.5394,-1.5359,-1.5378,-1.5359,-1.5402,-1.5507,-1.5359,-1.5359,-1.5388,-1.5622,-1.5652,-1.5672,-1.5486,-1.5489,-1.5491,-1.5621,0,-1.5182,-1.5279,-1.5258,-1.5354,-1.5397,-1.5351,-1.5401,-1.5416,-1.5413,-1.5449,-1.5445,-1.5487,-1.5437,-1.5448,-1.5488,-1.5486,-1.5554,-1.5476,-1.5531,-1.5533,-1.5529,-1.5694,-1.5725,-1.5847,-1.5637,-1.564,-1.5642,0,-1.5343,-1.537,-1.5471,-1.5479,-1.5497,-1.5542,-1.5572,-1.5607,-1.5623,-1.5618,-1.5639,-1.5612,-1.5668,-1.5606,-1.5684,-1.5631,-1.5652,-1.5654,-1.5659,-1.5664,-1.5595,-1.5706,-1.5885,-1.5904,-1.5668,-1.5666,-1.5664,0,-1.5465,-1.5526,-1.5594,-1.5606,-1.5618,-1.5651,-1.5657,-1.567,-1.5693,-1.5719,-1.5734,-1.5767,-1.5785,-1.5812,-1.5795,-1.5751,-1.5876,-1.5812,-1.5874,-1.5875,-1.5904,-1.5903,-1.6091,-1.5915,-1.5915,-1.5914,-1.5914,0,-1.5609,-1.5673,-1.5649,-1.5692,-1.5762,-1.5736,-1.5806,-1.5807,-1.5819,-1.5861,-1.5823,-1.5863,-1.5837,-1.5875,-1.5862,-1.593,-1.5938,-1.5936,-1.5932,-1.594,-1.5941,-1.5955,-1.5946,-1.5919,-1.5918,-1.5917,-1.5916,0,-1.5758,-1.5745,-1.5816,-1.5821,-1.5824,-1.5876,-1.588,-1.5919,-1.5912,-1.5966,-1.5977,-1.5967,-1.601,-1.5995,-1.6041,-1.6032,-1.6118,-1.6102,-1.6113,-1.611,-1.6173,-1.6168,-1.6378,-1.6405,-1.621,-1.6212,-1.6214,0,-1.5852,-1.59,-1.591,-1.5935,-1.5945,-1.5986,-1.6008,-1.5984,-1.601,-1.6032,-1.6069,-1.6108,-1.6139,-1.621,-1.6207,-1.6242,-1.6227,-1.6299,-1.6233,-1.624,-1.623,-1.6228,-1.6233,-1.6313,-1.6315,-1.6317,-1.6318,0,-1.6021,-1.6012,-1.6046,-1.6079,-1.6107,-1.6131,-1.6152,-1.6174,-1.6151,-1.6182,-1.6225,-1.6249,-1.6296,-1.6336,-1.6367,-1.6374,-1.6343,-1.6339,-1.6355,-1.6365,-1.637,-1.637,-1.6151,-1.6335,-1.6333,-1.6332,-1.6331,-1.633,-1.6147,-1.6187,-1.6201,-1.624,-1.6253,-1.6273,-1.6311,-1.6309,-1.6344,-1.638,-1.6364,-1.6414,-1.6429,-1.6468,-1.6479,-1.6518,-1.6491,-1.6514,-1.652,-1.6527,-1.6536,-1.6362,-1.6523,-1.6523,-1.6523,-1.6522,-1.6522,0,-1.6315,-1.6321,-1.6357,-1.6388,-1.6419,-1.6386,-1.6407,-1.6435,-1.648,-1.6496,-1.6527,-1.6577,-1.6615,-1.6615,-1.665,-1.6682,-1.6669,-1.6692,-1.6691,-1.6693,-1.6558,-1.6541,-1.6703,-1.6702,-1.6702,-1.6702,-1.6702,-1.6702,-1.6406,-1.6474,-1.6466,-1.654,-1.6545,-1.6594,-1.6609,-1.6628,-1.6641,-1.6698,-1.673,-1.6729,-1.6738,-1.6774,-1.6808,-1.6807,-1.6823,-1.6852,-1.6846,-1.672,-1.6702,-1.6685,-1.6669,-1.6855,-1.6856,-1.6978,-1.6979,-1.698]},{"header":{"parameterUnit":"m.s-1","parameterCategory":1,"la1":30.2991,"la2":30.254,"lo1":-89.0895,"lo2":-89.0444,"dy":0.0017,"dx":0.0017,"nx":28,"ny":28,"refTime":"2025-11-05T03:00:00:Z","depth":0,"parameterNumber":3,"parameterNumberName":"V-component_of_WINDS"},"data":[0,0,0,0,0,0,0,0,0,0,0,0,0,0,0,0,0,0,0,0,0,0,0,0,0,0,0,0,0,0,0,0,0,0,0,0,0,0,0,0,0,0,0,0,0,0,0,0,0,0,0,0,0,0,0,0,0,0,-2.7848,-2.7848,0,-2.7823,-2.7823,-2.7823,-2.7762,-2.7761,-2.776,-2.7758,-2.7734,-2.7734,-2.7735,0,0,0,0,0,0,0,0,0,0,0,0,0,-2.7845,-2.7846,-2.7848,-2.7848,-2.7848,-2.7823,-2.7823,-2.7823,-2.7762,-2.7761,-2.7759,-2.7758,-2.7734,-2.7734,-2.7735,0,0,0,0,0,0,0,0,0,0,0,0,0,-2.7836,-2.7846,-2.7849,-2.7815,-2.7811,-2.7823,-2.7823,-2.7823,-2.7763,-2.7761,-2.7759,-2.7757,-2.7733,-2.7734,-2.7735,-2.7778,0,0,-2.7737,-2.7738,0,0,0,0,0,0,0,0,-2.7837,-2.7836,-2.782,-2.7817,-2.7813,-2.7794,-2.7813,-2.7808,-2.7763,-2.7781,-2.7758,-2.7756,-2.7755,-2.7754,-2.7754,-2.7777,-2.7776,-2.7738,-2.7738,-2.7738,-2.7739,0,0,0,0,0,0,0,-2.7838,-2.7837,-2.7838,-2.782,-2.7816,-2.7801,-2.7798,-2.7812,-2.7779,-2.778,-2.7775,-2.7773,-2.7753,-2.7753,-2.7753,-2.7775,-2.7737,-2.7738,-2.7739,-2.7739,-2.7832,-2.7833,0,0,0,0,0,0,-2.7843,-2.7838,-2.7839,-2.7838,-2.7821,-2.7803,-2.7799,-2.7802,-2.7779,-2.7774,-2.7775,-2.777,-2.7753,-2.7752,-2.7752,-2.7799,-2.7738,-2.7739,-2.774,-2.783,-2.7832,-2.7834,0,0,0,0,0,0,-2.7843,-2.7844,-2.784,-2.7837,-2.7835,-2.7805,-2.7809,-2.7803,-2.7802,-2.7775,-2.7769,-2.778,-2.7751,-2.7751,-2.7772,-2.7798,-2.7739,-2.774,-2.7827,-2.783,-2.7833,-2.7896,0,0,0,0,0,0,-2.7843,-2.7844,-2.786,-2.7837,-2.7836,-2.7861,-2.7811,-2.7804,-2.7804,-2.7798,-2.7779,-2.7774,-2.775,-2.7771,-2.7772,-2.7798,-2.7741,-2.7825,-2.7829,-2.7832,-2.7891,-2.79,-2.7908,0,0,0,0,0,-2.7843,-2.7879,-2.7861,-2.7861,-2.7855,-2.7862,-2.7861,-2.7832,-2.7806,-2.7822,-2.7804,-2.7775,-2.7795,-2.7773,-2.7775,-2.7801,-2.7823,-2.7828,-2.7832,-2.7887,-2.7899,-2.7908,0,0,0,0,0,0,-2.7905,-2.7875,-2.7855,-2.7884,-2.7876,-2.7852,-2.787,-2.7845,-2.7844,-2.7839,-2.7803,-2.7799,-2.7825,-2.7815,-2.7792,-2.7841,-2.7804,-2.7809,-2.7846,-2.7856,-2.7865,-2.7866,-2.7741,0,0,0,0,0,-2.7922,-2.7931,-2.7904,-2.7933,-2.793,-2.7901,-2.7903,-2.7882,-2.7872,-2.7868,-2.7852,-2.7844,-2.7849,-2.7852,-2.7855,-2.789,-2.7885,-2.7909,-2.7917,-2.7925,-2.7929,-2.7946,-2.7956,-2.7849,-2.7849,-2.7849,0,0,-2.7958,-2.7942,-2.795,-2.7945,-2.7936,-2.7945,-2.7899,-2.7911,-2.7917,-2.787,-2.7888,-2.7877,-2.7866,-2.7894,-2.7905,-2.7886,-2.7957,-2.793,-2.7936,-2.7936,-2.7951,-2.7961,-2.797,-2.7852,-2.7851,-2.7851,0,0,-2.8026,-2.8016,-2.8038,-2.803,-2.8017,-2.7998,-2.8003,-2.7983,-2.7973,-2.7991,-2.7956,-2.7963,-2.7972,-2.7965,-2.7963,-2.8029,-2.8002,-2.8032,-2.8076,-2.8093,-2.8101,-2.8108,-2.8131,-2.8139,-2.8036,-2.8036,-2.8036,0,-2.8072,-2.8084,-2.8053,-2.8067,-2.8065,-2.8023,-2.8045,-2.8039,-2.8028,-2.8028,-2.8007,-2.8016,-2.8006,-2.8031,-2.8047,-2.8048,-2.8052,-2.8033,-2.8103,-2.8109,-2.8116,-2.8137,-2.8145,-2.804,-2.8039,-2.8039,-2.8039,0,-2.814,-2.8149,-2.8169,-2.8158,-2.8159,-2.8177,-2.8149,-2.8154,-2.8132,-2.8116,-2.8134,-2.812,-2.8119,-2.8124,-2.8103,-2.8146,-2.8134,-2.8109,-2.8071,-2.813,-2.8149,-2.8157,-2.8045,-2.8044,-2.8043,-2.8042,0,0,-2.8245,-2.8218,-2.8225,-2.8219,-2.8202,-2.8209,-2.8226,-2.8224,-2.8228,-2.8222,-2.8235,-2.8243,-2.8219,-2.8216,-2.8195,-2.821,-2.8262,-2.8182,-2.8181,-2.8196,-2.8307,-2.8325,-2.8335,-2.8244,-2.8246,-2.8247,-2.8307,0,-2.8308,-2.8334,-2.8306,-2.8337,-2.8345,-2.8306,-2.832,-2.8311,-2.8296,-2.8301,-2.8284,-2.829,-2.8259,-2.8257,-2.827,-2.8253,-2.8284,-2.8248,-2.8255,-2.8255,-2.8257,-2.8345,-2.8364,-2.8422,-2.8315,-2.8316,-2.8317,0,-2.8385,-2.8382,-2.8414,-2.8394,-2.8396,-2.8409,-2.8405,-2.8411,-2.84,-2.8388,-2.8385,-2.8359,-2.8374,-2.8339,-2.8358,-2.8335,-2.8336,-2.8328,-2.833,-2.8328,-2.8288,-2.8344,-2.844,-2.8448,-2.8329,-2.8328,-2.8327,0,-2.8457,-2.8461,-2.848,-2.8477,-2.8455,-2.8465,-2.8456,-2.8444,-2.8444,-2.8441,-2.8441,-2.8441,-2.844,-2.844,-2.8414,-2.8391,-2.8436,-2.8399,-2.8426,-2.8427,-2.8436,-2.8435,-2.8531,-2.844,-2.844,-2.844,-2.844,0,-2.8529,-2.855,-2.8512,-2.8524,-2.8545,-2.8514,-2.8537,-2.8524,-2.8514,-2.8522,-2.8489,-2.8498,-2.8464,-2.847,-2.845,-2.8469,-2.8469,-2.8459,-2.8454,-2.8461,-2.8462,-2.846,-2.8455,-2.8442,-2.8441,-2.8441,-2.8441,0,-2.8612,-2.8588,-2.8606,-2.8584,-2.8578,-2.8596,-2.8576,-2.8586,-2.857,-2.8581,-2.8582,-2.8556,-2.856,-2.8535,-2.8536,-2.8522,-2.855,-2.8538,-2.8553,-2.8549,-2.8576,-2.8574,-2.8673,-2.8684,-2.8588,-2.8589,-2.859,0,-2.8659,-2.8673,-2.8653,-2.8656,-2.8649,-2.8654,-2.8655,-2.8625,-2.8627,-2.8616,-2.8627,-2.8629,-2.8628,-2.8638,-2.8619,-2.8619,-2.8606,-2.8641,-2.8605,-2.8612,-2.8604,-2.8603,-2.8603,-2.8647,-2.8649,-2.865,-2.865,0,-2.8744,-2.8731,-2.8732,-2.873,-2.8731,-2.8727,-2.8722,-2.8727,-2.8694,-2.8698,-2.8702,-2.8702,-2.8702,-2.8704,-2.87,-2.8691,-2.8665,-2.8662,-2.8668,-2.8675,-2.8682,-2.8677,-2.8571,-2.8659,-2.8658,-2.8658,-2.8657,-2.8657,-2.8808,-2.8819,-2.8806,-2.8809,-2.8802,-2.8797,-2.8805,-2.8789,-2.8792,-2.8789,-2.8772,-2.8779,-2.8768,-2.876,-2.8754,-2.8759,-2.8742,-2.8752,-2.8753,-2.8756,-2.876,-2.8683,-2.8759,-2.8758,-2.8758,-2.8758,-2.8758,0,-2.889,-2.888,-2.8883,-2.8875,-2.8878,-2.8854,-2.8846,-2.885,-2.8856,-2.8848,-2.8848,-2.8853,-2.8854,-2.8836,-2.8835,-2.8843,-2.8831,-2.8844,-2.8842,-2.884,-2.8776,-2.877,-2.8853,-2.8853,-2.8853,-2.8853,-2.8853,-2.8853,-2.8932,-2.8949,-2.8935,-2.8948,-2.8938,-2.8944,-2.8942,-2.8937,-2.893,-2.8937,-2.8938,-2.8926,-2.8913,-2.8912,-2.8912,-2.8907,-2.8907,-2.8924,-2.8914,-2.8854,-2.8845,-2.8836,-2.883,-2.8924,-2.8925,-2.8977,-2.8978,-2.8978]}]]